Change the Weather History Date:

Friday, March 16, 2012

  Actual Average Record
Temperature  
Mean Temperature 65 °F -  
Max Temperature 81 °F 39 °F 81 °F (2012)
Min Temperature 49 °F 24 °F 19 °F (2014)
Growing Degree Days 15 (Base 50)    
Moisture  
Dew Point 53 °F    
Average Humidity 71    
Maximum Humidity 94    
Minimum Humidity 33    
Precipitation  
Precipitation 0.00 in - - ()
Sea Level Pressure  
Sea Level Pressure 29.89 in    
Wind  
Wind Speed 9 mph (South)    
Max Wind Speed 20 mph    
Max Gust Speed 26 mph    
Visibility 6 miles    
Events      
Averages and records for this station are not official NWS values.
T = Trace of Precipitation, MM = Missing Value Source: NWS Daily Summary

Daily Weather History Graph

Daily Weather History Graph

Search for Another Location

Airport or City:

Trip Planner

Search our weather history database for the weather conditions in past years. The results will help you decide how hot, cold, wet, or windy it might be!

Date:

Astronomy

Mar. 16, 2012 Rise Set
Actual Time 7:30 AM CDT 7:29 PM CDT
Civil Twilight 7:02 AM CDT 7:57 PM CDT
Nautical Twilight 6:29 AM CDT 8:30 PM CDT
Astronomical Twilight 5:56 AM CDT 9:03 PM CDT
Moon 3:56 AM CDT (3/16) 1:43 PM CDT (3/16)
Length of Visible Light 12h 55m
Length of Day
11h 58m
Waning Crescent, 32% of the Moon is Illuminated
Mar 16
Waning Crescent
Mar 22
New
Mar 30
First Quarter
Apr 6
Full
Apr 13
Last Quarter

Hourly Weather History & Observations

Time (CDT) Temp. Dew Point Humidity Pressure Visibility Wind Dir Wind Speed Gust Speed Precip Events Conditions
12:15 AM 57.2 °F 53.2 °F 87% 29.96 in 4.0 mi South 8.1 mph - N/A   Clear
12:35 AM 56.7 °F 52.3 °F 85% 29.96 in 4.0 mi SSE 3.5 mph - N/A   Clear
12:55 AM 54.7 °F 52.0 °F 91% 29.95 in 3.0 mi South 8.1 mph - N/A   Clear
1:15 AM 56.1 °F 53.1 °F 89% 29.94 in 4.0 mi South 10.4 mph - N/A   Clear
1:35 AM 55.4 °F 52.3 °F 89% 29.94 in 3.0 mi South 10.4 mph - N/A   Clear
1:55 AM 54.0 °F 51.4 °F 91% 29.94 in 2.5 mi South 8.1 mph - N/A   Clear
2:15 AM 54.1 °F 52.0 °F 92% 29.94 in 2.5 mi South 9.2 mph - N/A   Clear
2:35 AM 54.1 °F 51.8 °F 92% 29.94 in 3.0 mi South 9.2 mph - N/A   Clear
2:55 AM 54.7 °F 52.5 °F 92% 29.94 in 3.0 mi South 6.9 mph - N/A   Clear
3:15 AM 54.5 °F 52.0 °F 91% 29.94 in 2.5 mi South 6.9 mph - N/A   Clear
3:35 AM 54.9 °F 52.7 °F 92% 29.94 in 2.5 mi South 6.9 mph - N/A   Clear
3:55 AM 54.7 °F 52.7 °F 93% 29.93 in 3.0 mi SSW 5.8 mph - N/A   Clear
4:15 AM 54.0 °F 51.8 °F 92% 29.93 in 3.0 mi SSW 8.1 mph - N/A   Clear
4:35 AM 53.8 °F 51.8 °F 93% 29.93 in 3.0 mi SSW 6.9 mph - N/A   Clear
4:55 AM 52.9 °F 50.9 °F 93% 29.93 in 3.0 mi SSW 5.8 mph - N/A   Clear
5:15 AM 54.3 °F 52.3 °F 93% 29.93 in 5.0 mi SSW 8.1 mph - N/A   Clear
5:35 AM 54.3 °F 52.0 °F 92% 29.93 in 4.0 mi SW 6.9 mph - N/A   Clear
5:55 AM 55.2 °F 52.7 °F 91% 29.93 in 4.0 mi WSW 6.9 mph - N/A   Clear
6:15 AM 53.1 °F 50.7 °F 92% 29.93 in 2.5 mi West 6.9 mph - N/A   Clear
6:35 AM 52.5 °F 50.4 °F 92% 29.93 in 2.5 mi West 6.9 mph - N/A   Clear
6:55 AM 53.1 °F 51.1 °F 93% 29.94 in 2.5 mi West 5.8 mph - N/A   Clear
7:15 AM 52.0 °F 49.8 °F 92% 29.94 in 0.8 mi Calm Calm - N/A   Mostly Cloudy
7:35 AM 50.2 °F 48.4 °F 94% 29.93 in 0.2 mi Calm Calm - N/A   Overcast
7:55 AM 49.6 °F 47.8 °F 94% 29.93 in 0.2 mi East 3.5 mph - N/A   Overcast
8:15 AM 49.3 °F 47.5 °F 94% 29.93 in 0.2 mi SE 4.6 mph - N/A   Overcast
8:35 AM 50.4 °F 48.7 °F 94% 29.93 in 0.2 mi SE 4.6 mph - N/A   Overcast
8:55 AM 52.9 °F 51.3 °F 94% 29.93 in 0.2 mi SE 5.8 mph - N/A   Overcast
9:15 AM 54.7 °F 53.1 °F 94% 29.93 in 1.8 mi SSE 4.6 mph - N/A   Scattered Clouds
9:55 AM 60.3 °F 58.6 °F 94% 29.93 in 2.5 mi South 5.8 mph - N/A   Clear
10:55 AM 65.5 °F 57.7 °F 76% 29.93 in 7.0 mi South 8.1 mph - N/A   Clear
11:35 AM 70.2 °F 58.6 °F 67% 29.92 in 7.0 mi SSE 10.4 mph - N/A   Clear
11:55 AM 72.5 °F 59.4 °F 63% 29.92 in 7.0 mi SSE 11.5 mph - N/A   Clear
12:15 PM 74.1 °F 58.8 °F 59% 29.91 in 7.0 mi South 13.8 mph - N/A   Clear
12:35 PM 75.4 °F 57.2 °F 53% 29.90 in 10.0 mi South 15.0 mph - N/A   Clear
12:55 PM 76.3 °F 55.8 °F 49% 29.90 in 10.0 mi South 16.1 mph 19.6 mph N/A   Clear
1:15 PM 77.7 °F 52.9 °F 42% 29.88 in 10.0 mi South 13.8 mph 18.4 mph N/A   Clear
1:35 PM 79.0 °F 50.2 °F 36% 29.87 in 10.0 mi South 13.8 mph 21.9 mph N/A   Scattered Clouds
1:55 PM 79.2 °F 49.6 °F 35% 29.86 in 10.0 mi SW 19.6 mph 25.3 mph N/A   Scattered Clouds
2:15 PM 79.3 °F 51.1 °F 37% 29.85 in 10.0 mi SSW 16.1 mph - N/A   Scattered Clouds
2:35 PM 79.2 °F 52.2 °F 39% 29.84 in 10.0 mi SSW 15.0 mph 20.7 mph N/A   Scattered Clouds
2:55 PM 80.1 °F 51.1 °F 36% 29.83 in 10.0 mi SSW 15.0 mph 21.9 mph N/A   Scattered Clouds
3:15 PM 79.2 °F 51.3 °F 38% 29.82 in 10.0 mi SSW 16.1 mph 21.9 mph N/A   Scattered Clouds
3:35 PM 80.6 °F 48.6 °F 33% 29.82 in 10.0 mi SSW 18.4 mph - N/A   Mostly Cloudy
3:55 PM 81.1 °F 52.5 °F 37% 29.82 in 10.0 mi SSW 19.6 mph - N/A   Scattered Clouds
4:15 PM 78.8 °F 55.0 °F 44% 29.82 in 10.0 mi SSW 19.6 mph 26.5 mph N/A   Scattered Clouds
4:35 PM 78.3 °F 54.7 °F 44% 29.82 in 10.0 mi SSW 19.6 mph 25.3 mph N/A   Clear
4:55 PM 77.5 °F 54.5 °F 45% 29.82 in 10.0 mi South 17.3 mph 23.0 mph N/A   Clear
5:15 PM 76.8 °F 53.8 °F 45% 29.82 in 10.0 mi SSW 16.1 mph - N/A   Clear
5:35 PM 76.1 °F 54.3 °F 47% 29.82 in 10.0 mi South 17.3 mph 20.7 mph N/A   Clear
5:55 PM 75.4 °F 53.8 °F 47% 29.82 in 10.0 mi South 17.3 mph 23.0 mph N/A   Clear
6:15 PM 74.7 °F 53.6 °F 48% 29.82 in 10.0 mi SSW 13.8 mph 20.7 mph N/A   Clear
6:35 PM 74.1 °F 53.6 °F 49% 29.81 in 10.0 mi South 12.7 mph - N/A   Clear
6:55 PM 72.9 °F 53.8 °F 51% 29.81 in 10.0 mi South 10.4 mph - N/A   Clear
7:15 PM 70.5 °F 52.9 °F 54% 29.82 in 10.0 mi South 9.2 mph - N/A   Clear
7:35 PM 67.1 °F 51.3 °F 57% 29.82 in 10.0 mi South 8.1 mph - N/A   Clear
7:55 PM 65.8 °F 51.3 °F 59% 29.83 in 10.0 mi SSW 10.4 mph - N/A   Clear
8:15 PM 64.9 °F 51.6 °F 62% 29.83 in 10.0 mi South 10.4 mph - N/A   Clear
8:55 PM 63.9 °F 55.4 °F 74% 29.84 in 10.0 mi South 10.4 mph - N/A   Clear
9:15 PM 63.1 °F 55.4 °F 76% 29.84 in 10.0 mi South 10.4 mph - N/A   Clear
9:35 PM 61.5 °F 54.7 °F 78% 29.84 in 10.0 mi South 10.4 mph - N/A   Clear
9:55 PM 61.0 °F 54.9 °F 80% 29.84 in 10.0 mi South 10.4 mph - N/A   Clear
10:15 PM 60.6 °F 54.7 °F 81% 29.84 in 10.0 mi South 10.4 mph - N/A   Clear
10:35 PM 59.9 °F 54.7 °F 83% 29.84 in 7.0 mi South 11.5 mph - N/A   Clear
10:55 PM 59.4 °F 54.9 °F 85% 29.84 in 7.0 mi South 10.4 mph - N/A   Clear
11:15 PM 59.0 °F 54.3 °F 84% 29.84 in 7.0 mi South 9.2 mph - N/A   Clear
11:35 PM 59.0 °F 54.3 °F 84% 29.84 in 7.0 mi South 10.4 mph - N/A   Clear
11:55 PM 59.5 °F 54.5 °F 83% 29.83 in 7.0 mi South 12.7 mph - N/A   Clear